Home   Weather   Anaheim   Past weeks

Flag for USA Past Weather in Anaheim, California, USA — Yesterday and Last 2 Weeks

Now
61 °F

Partly sunny.


Feels Like: 61 °F
Forecast: 51 / 59 °F
Wind: 6 mph from North

Location: Fullerton Municipal Airport

Current Time: Jan 21, 2017 at 4:00:24 pm

Latest Report: Jan 21, 2017 at 2:53 pm


Visibility: 10 mi

Pressure: 29.96 "Hg

Humidity: 54%

Dew Point: 44 °F

Location of AnaheimLocation

Past Weather in Anaheim — Graph

°F

Anaheim Temperature Yesterday

Maximum temperature yesterday: 60 °F (at 1:53 pm)
Minimum temperature yesterday: 53 °F (at 5:22 am)
Average temperature yesterday: 55 °F

High & Low Weather Summary for the Past Weeks

 TemperatureHumidityPressure
High77 °F (Jan 8, 1:53 pm)100% (Jan 10, 12:12 am)30.20 "Hg (Jan 10, 12:12 am)
Low44 °F (Jan 17, 4:53 am)29% (Jan 7, 2:53 pm)29.44 "Hg (Jan 20, 3:00 pm)
Average57 °F81%30.02 "Hg
* Reported Jan 6 2:53 pm — Jan 21 2:53 pm, Anaheim, Weather by CustomWeather, © 2017

Note: Actual official high and low records may vary slightly from our data, if they occured in-between our weather recording intervals... More about our weather records

Advertising

Anaheim Weather History for the Previous 24 Hours

Scroll right to see more
 ConditionsComfort  
Time TempWeatherWind HumidityBarometerVisibility
2:53 pm
Sat, Jan 21
61 °FPartly sunny.6 mph54%29.96 "Hg10 mi
1:53 pm61 °FPartly sunny.N/A54%29.94 "Hg10 mi
12:53 pm62 °FSunny.7 mph52%29.92 "Hg10 mi
11:53 am61 °FSunny.8 mph54%29.93 "Hg10 mi
10:53 am59 °FSunny.7 mph58%29.92 "Hg10 mi
9:53 am57 °FSunny.5 mph60%29.91 "Hg10 mi
8:53 am52 °FSunny.No wind75%29.87 "Hg10 mi
7:53 am49 °FSunny.No wind86%29.83 "Hg10 mi
6:53 am44 °FClear.No wind93%29.80 "Hg10 mi
5:53 am44 °FClear.No wind93%29.76 "Hg10 mi
4:53 am46 °FClear.No wind89%29.72 "Hg10 mi
3:53 am48 °FClear.No wind86%29.70 "Hg10 mi
2:53 am51 °FPassing clouds.No wind80%29.66 "Hg10 mi
1:53 am53 °FPassing clouds.7 mph69%29.64 "Hg10 mi
12:53 am54 °FPassing clouds.9 mph64%29.61 "Hg10 mi
11:53 pm
Fri, Jan 20
53 °FClear.5 mph69%29.59 "Hg10 mi
10:53 pm54 °FPartly cloudy.5 mph72%29.59 "Hg10 mi
9:53 pm54 °FPartly cloudy.12 mph74%29.57 "Hg10 mi
8:53 pm55 °FPartly cloudy.7 mph72%29.55 "Hg10 mi
7:53 pm55 °FPartly cloudy.5 mph74%29.53 "Hg10 mi
6:53 pm55 °FPassing clouds.10 mph74%29.51 "Hg10 mi
5:53 pm55 °FPassing clouds.8 mph72%29.48 "Hg10 mi
4:53 pm56 °FLight rain. More clouds than sun.10 mph77%29.46 "Hg10 mi
Weather by CustomWeather, © 2017

See weather overviewHow to use our weather pages